Weather History for Manado, Indonesia

Change the Weather History Date:

Friday, October 4, 2013

  Actual Average Record
Temperature  
Mean Temperature 82 °F -  
Max Temperature 90 °F - - ()
Min Temperature 74 °F - - ()
Cooling Degree Days 17    
Growing Degree Days 32 (Base 50)    
Moisture  
Dew Point 74 °F    
Average Humidity 76    
Maximum Humidity 97    
Minimum Humidity 49    
Precipitation  
Precipitation 0.00 in - - ()
Sea Level Pressure  
Sea Level Pressure 29.82 in    
Wind  
Wind Speed 3 mph ()    
Max Wind Speed 7 mph    
Max Gust Speed -    
Visibility 6.0 miles    
Events Rain    
T = Trace of Precipitation, MM = Missing Value Source: Averaged Metar Reports

Daily Weather History Graph

Daily Weather History Graph

Search for Another Location

Airport:

Trip Planner

Search our weather history database for the weather conditions in past years. The results will help you decide how hot, cold, wet, or windy it might be!

Date:

Astronomy

Oct. 04, 2013 Rise Set
Actual Time 5:26 AM WITA 5:31 PM WITA
Civil Twilight 5:05 AM WITA 5:52 PM WITA
Nautical Twilight 4:41 AM WITA 6:16 PM WITA
Astronomical Twilight 4:17 AM WITA 6:40 PM WITA
Moon 4:31 AM WITA (10/4) 4:53 PM WITA (10/4)
Length of Visible Light 12h 47m
Length of Day
12h 05m
Waning Crescent, 1% of the Moon is Illuminated
Oct 4
Waning Crescent
Oct 5
New
Oct 12
First Quarter
Oct 19
Full
Oct 27
Last Quarter

Hourly Weather History & Observations

Time (WITA) Temp. Heat Index Dew Point Humidity Pressure Visibility Wind Dir Wind Speed Gust Speed Precip Events Conditions
2:00 AM 76 °F - 74 °F 91% 29.83 in 6 mi NNE 1.2 mph - -   Partly Cloudy
5:00 AM 74 °F - 73 °F 97% 29.82 in 6 mi Calm Calm - -   Partly Cloudy
5:30 AM 75.2 °F - 73.4 °F 94% 29.80 in 6.2 mi Calm Calm - N/A   Partly Cloudy
6:30 AM 77.0 °F - 75.2 °F 94% 29.80 in 6.2 mi South 3.5 mph - N/A   Partly Cloudy
7:00 AM 78.8 °F - 73.4 °F 83% 29.83 in 6.2 mi SE 2.3 mph - N/A   Partly Cloudy
7:30 AM 82.4 °F 89.5 °F 75.2 °F 79% 29.86 in 6.2 mi ESE 2.3 mph - N/A   Partly Cloudy
8:00 AM 83 °F - 75 °F 71% 29.86 in 6 mi SSE 3.5 mph - -   Scattered Clouds
8:00 AM 82.4 °F 89.5 °F 75.2 °F 79% 29.86 in 6.2 mi SSE 3.5 mph - N/A   Partly Cloudy
8:30 AM 86.0 °F 95.1 °F 75.2 °F 70% 29.86 in 6.2 mi Calm Calm - N/A   Partly Cloudy
9:00 AM 86.0 °F 95.1 °F 75.2 °F 70% 29.86 in 6.2 mi WNW 3.5 mph - N/A   Partly Cloudy
9:30 AM 86.0 °F 93.4 °F 73.4 °F 66% 29.83 in 6.2 mi WSW 4.6 mph - N/A   Scattered Clouds
10:00 AM 87.8 °F 95.6 °F 73.4 °F 62% 29.83 in 6.2 mi West 4.6 mph - N/A   Scattered Clouds
10:30 AM 89.6 °F 99.8 °F 75.2 °F 62% 29.83 in 6.2 mi WSW 5.8 mph - N/A   Scattered Clouds
11:00 AM 90 °F - 73 °F 49% 29.83 in 6 mi WSW 5.8 mph - -   Partly Cloudy
11:00 AM 89.6 °F 98.2 °F 73.4 °F 59% 29.83 in 6.2 mi WSW 5.8 mph - N/A   Scattered Clouds
11:30 AM 89.6 °F 98.2 °F 73.4 °F 59% 29.80 in 6.2 mi West 6.9 mph - N/A   Scattered Clouds
12:30 PM 87.8 °F 95.6 °F 73.4 °F 62% 29.80 in 6.2 mi WNW 5.8 mph - N/A   Scattered Clouds
1:00 PM 86.0 °F 93.4 °F 73.4 °F 66% 29.77 in 6.2 mi West 5.8 mph - N/A   Scattered Clouds
1:30 PM 87.8 °F 97.6 °F 75.2 °F 66% 29.77 in 6.2 mi West 4.6 mph - N/A   Scattered Clouds
2:00 PM 88 °F - 74 °F 56% 29.76 in 6 mi NW 5.8 mph - -   Mostly Cloudy
2:00 PM 87.8 °F 97.6 °F 75.2 °F 66% 29.74 in 6.2 mi NW 6.9 mph - N/A   Scattered Clouds
2:30 PM 87.8 °F 95.6 °F 73.4 °F 62% 29.77 in 6.2 mi West 4.6 mph - N/A   Scattered Clouds
3:00 PM 87.8 °F 97.6 °F 75.2 °F 66% 29.77 in 6.2 mi West 4.6 mph - N/A   Scattered Clouds
3:30 PM 87.8 °F 97.6 °F 75.2 °F 66% 29.77 in 6.2 mi WSW 4.6 mph - N/A   Scattered Clouds
4:00 PM 86.0 °F 95.1 °F 75.2 °F 70% 29.77 in 6.2 mi WSW 4.6 mph - N/A   Scattered Clouds
4:30 PM 84.2 °F 90.9 °F 73.4 °F 70% 29.80 in 6.2 mi West 3.5 mph - N/A   Scattered Clouds
5:00 PM 85 °F - 74 °F 64% 29.82 in 6 mi West 3.5 mph - -   Partly Cloudy
5:00 PM 84.2 °F 92.3 °F 75.2 °F 74% 29.80 in 6.2 mi West 3.5 mph - N/A   Scattered Clouds
5:30 PM 84.2 °F 92.3 °F 75.2 °F 74% 29.80 in 6.2 mi WNW 2.3 mph - N/A   Scattered Clouds
6:00 PM 82.4 °F 89.5 °F 75.2 °F 79% 29.83 in 6.2 mi Calm Calm - N/A   Scattered Clouds
6:30 PM 80.6 °F 86.2 °F 75.2 °F 84% - 5.6 mi Calm Calm - N/A   Partly Cloudy
7:00 PM 80.6 °F 87.1 °F 77.0 °F 89% - 5.6 mi Calm Calm - N/A   Scattered Clouds
7:30 PM 80.6 °F 85.4 °F 73.4 °F 79% - 5.6 mi SW 3.5 mph - N/A   Scattered Clouds
8:00 PM 80 °F - 73 °F 75% 29.89 in 6 mi WSW 3.5 mph - - Rain Light Rain
8:00 PM 78.8 °F - 73.4 °F 83% - 5.6 mi SSW 4.6 mph - N/A Rain Light Rain
8:30 PM 77.0 °F - 73.4 °F 89% - 5.0 mi SSW 3.5 mph - N/A Rain Light Rain
9:00 PM 77.0 °F - 73.4 °F 89% 29.86 in 5.0 mi SE 3.5 mph - N/A Rain Light Rain
9:30 PM 77.0 °F - 73.4 °F 89% 29.86 in 5.0 mi NNE 1.2 mph - N/A   Scattered Clouds
10:00 PM 75.2 °F - 73.4 °F 94% 29.86 in 5.0 mi ESE 1.2 mph - N/A   Scattered Clouds
10:30 PM 75.2 °F - 73.4 °F 94% 29.86 in 5.6 mi SE 2.3 mph - N/A   Scattered Clouds
11:00 PM 75 °F - 73 °F 91% 29.86 in 6 mi SE 2.3 mph - -   Partly Cloudy
11:00 PM 75.2 °F - 73.4 °F 94% 29.86 in 5.6 mi SE 2.3 mph - N/A   Scattered Clouds
11:30 PM 75.2 °F - 73.4 °F 94% 29.83 in 5.6 mi Calm Calm - N/A   Scattered Clouds